Find Kosmos-2371

NORAD ID: 26394 Int'l Des: 2000-036 Owner: VKSR Country: RU operational
HEOCIRCULARGSO

当前视图

正在加载3D地球...

About Kosmos-2371

Kosmos-2371 (NORAD 26394) is a satellite launched Jul 4, 2000 by VKSR of RU. It operates in HEO, CIRCULAR, GSO orbit with a mass of 2100.00 kg.

即将过境

Passes for default location (London). Set your location on the main map for personalized predictions.

高度历史

Loading altitude history...

两行轨道根数

1 26394U 00036A 26195.03941730 -.00000076 00000-0 00000-0 0 9997
2 26394 14.0057 7.3077 0002777 167.1710 201.9104 1.00274940 95315
Epoch: Jul 14, 2026 • Age: 21 hours

当前状态

高度 35797.4 km
远地点 / 近地点 N/A
速度 3.07 km/s
星下点 -8.43°S, 71.14°E
发射日期 Jul 4, 2000
运行时间 26 years
类型 other

技术详情

分类 Payload
质量 2100.00 kg
干质量 2000.00 kg
总质量 2100.00 kg
长度 5.50 m
直径 2.50 m
跨度 9.00 m
形状 Cyl + 2 Pan
制造商 NPOPMR
平台类型 Geizer
阶段状态 In Orbit
所有者/国家 VKSR/RU

Most Searched